Year,Month,Day,Hour,Minute,Value (Times are PST for temperature in C)
2008,07,13,00,00,15.60
2008,07,13,00,01,15.60
2008,07,13,00,02,15.60
2008,07,13,00,03,15.50
2008,07,13,00,04,15.50
2008,07,13,00,05,15.50
2008,07,13,00,06,15.50
2008,07,13,00,07,15.50
2008,07,13,00,08,15.50
2008,07,13,00,09,15.50
2008,07,13,00,10,15.50
2008,07,13,00,11,15.40
2008,07,13,00,12,15.40
2008,07,13,00,13,15.40
2008,07,13,01,02,14.70
2008,07,13,01,03,14.70
2008,07,13,01,04,14.70
2008,07,13,01,05,14.70
2008,07,13,01,06,14.70
2008,07,13,01,07,14.60
2008,07,13,01,08,14.60
2008,07,13,01,09,14.60
2008,07,13,01,10,14.60
2008,07,13,01,11,14.50
2008,07,13,01,12,14.50
2008,07,13,01,13,14.50
2008,07,13,01,14,14.50
2008,07,13,01,15,14.50
2008,07,13,01,16,14.40
2008,07,13,01,17,14.40
2008,07,13,01,18,14.40
2008,07,13,01,19,14.40
2008,07,13,01,20,14.30
2008,07,13,01,21,14.30
2008,07,13,01,22,14.30
2008,07,13,01,23,14.30
2008,07,13,01,24,14.20
2008,07,13,01,25,14.20
2008,07,13,01,26,14.20
2008,07,13,01,27,14.20
2008,07,13,01,28,14.20
2008,07,13,01,29,14.20
2008,07,13,01,30,14.20
2008,07,13,01,31,14.20
2008,07,13,01,32,14.10
2008,07,13,01,33,14.10
2008,07,13,01,34,14.10
2008,07,13,01,35,14.10
2008,07,13,01,36,14.10
2008,07,13,01,37,14.00
2008,07,13,01,38,14.00
2008,07,13,01,39,14.00
2008,07,13,01,40,14.00
2008,07,13,01,41,14.00
2008,07,13,01,42,13.90
2008,07,13,01,43,13.90
2008,07,13,01,44,13.90
2008,07,13,01,45,13.90
2008,07,13,01,46,13.90
2008,07,13,01,47,13.80
2008,07,13,01,48,13.80
2008,07,13,01,49,13.80
2008,07,13,01,50,13.80
2008,07,13,01,51,13.80
2008,07,13,01,52,13.80
2008,07,13,01,53,13.80
2008,07,13,01,54,13.80
2008,07,13,01,55,13.70
2008,07,13,01,56,13.70
2008,07,13,01,57,13.70
2008,07,13,01,58,13.70
2008,07,13,01,59,13.70
2008,07,13,02,00,13.70
2008,07,13,02,01,13.70
2008,07,13,02,02,13.70
2008,07,13,02,03,13.70
2008,07,13,02,04,13.70
2008,07,13,02,05,13.60
2008,07,13,02,06,13.60
2008,07,13,02,07,13.60
2008,07,13,02,08,13.60
2008,07,13,02,09,13.60
2008,07,13,02,10,13.60
2008,07,13,02,11,13.60
2008,07,13,02,12,13.60
2008,07,13,02,13,13.60
2008,07,13,02,14,13.60
2008,07,13,02,15,13.60
2008,07,13,02,16,13.60
2008,07,13,02,17,13.60
2008,07,13,02,18,13.60
2008,07,13,02,19,13.60
2008,07,13,02,20,13.60
2008,07,13,02,21,13.60
2008,07,13,02,22,13.60
2008,07,13,02,23,13.60
2008,07,13,02,24,13.70
2008,07,13,02,25,13.70
2008,07,13,02,26,13.70
2008,07,13,02,27,13.70
2008,07,13,02,28,13.70
2008,07,13,02,29,13.70
2008,07,13,02,30,13.70
2008,07,13,02,31,13.70
2008,07,13,02,32,13.70
2008,07,13,02,33,13.70
2008,07,13,02,34,13.70
2008,07,13,02,35,13.70
2008,07,13,02,36,13.70
2008,07,13,02,37,13.70
2008,07,13,02,38,13.70
2008,07,13,02,39,13.70
2008,07,13,02,40,13.70
2008,07,13,02,41,13.70
2008,07,13,02,42,13.70
2008,07,13,02,43,13.70
2008,07,13,02,44,13.70
2008,07,13,02,45,13.70
2008,07,13,02,46,13.60
2008,07,13,02,47,13.60
2008,07,13,02,48,13.60
2008,07,13,02,49,13.60
2008,07,13,02,50,13.60
2008,07,13,02,51,13.60
2008,07,13,02,52,13.50
2008,07,13,02,53,13.50
2008,07,13,02,54,13.50
2008,07,13,02,55,13.50
2008,07,13,02,56,13.50
2008,07,13,02,57,13.50
2008,07,13,02,58,13.50
2008,07,13,02,59,13.40
2008,07,13,03,00,13.40
2008,07,13,03,01,13.40
2008,07,13,03,02,13.40
2008,07,13,03,03,13.40
2008,07,13,03,04,13.40
2008,07,13,03,05,13.40
2008,07,13,03,06,13.40
2008,07,13,03,07,13.40
2008,07,13,03,08,13.40
2008,07,13,03,09,13.40
2008,07,13,03,10,13.40
2008,07,13,03,11,13.40
2008,07,13,03,12,13.40
2008,07,13,03,13,13.30
2008,07,13,03,14,13.30
2008,07,13,03,15,13.30
2008,07,13,03,16,13.30
2008,07,13,03,17,13.30
2008,07,13,03,18,13.30
2008,07,13,03,19,13.30
2008,07,13,03,20,13.30
2008,07,13,03,21,13.30
2008,07,13,03,22,13.30
2008,07,13,03,23,13.20
2008,07,13,03,24,13.20
2008,07,13,03,25,13.20
2008,07,13,03,26,13.20
2008,07,13,03,27,13.20
2008,07,13,03,28,13.10
2008,07,13,03,29,13.10
2008,07,13,03,30,13.10
2008,07,13,03,31,13.10
2008,07,13,03,32,13.10
2008,07,13,03,33,13.00
2008,07,13,03,34,13.00
2008,07,13,03,35,13.00
2008,07,13,03,36,13.00
2008,07,13,03,37,13.00
2008,07,13,03,38,13.00
2008,07,13,03,39,13.00
2008,07,13,03,40,12.90
2008,07,13,03,41,12.90
2008,07,13,03,42,12.90
2008,07,13,03,43,12.90
2008,07,13,03,44,12.90
2008,07,13,03,45,12.90
2008,07,13,03,46,12.90
2008,07,13,03,47,12.90
2008,07,13,03,48,12.90
2008,07,13,03,49,12.80
2008,07,13,03,50,12.80
2008,07,13,03,51,12.80
2008,07,13,03,52,12.80
2008,07,13,03,53,12.80
2008,07,13,03,54,12.80
2008,07,13,03,55,12.80
2008,07,13,03,56,12.80
2008,07,13,03,57,12.80
2008,07,13,03,58,12.80
2008,07,13,03,59,12.80
2008,07,13,04,00,12.80
2008,07,13,04,01,12.80
2008,07,13,04,02,12.80
2008,07,13,04,03,12.80
2008,07,13,04,04,12.80
2008,07,13,04,05,12.80
2008,07,13,04,06,12.80
2008,07,13,04,07,12.80
2008,07,13,04,08,12.80
2008,07,13,04,09,12.80
2008,07,13,04,10,12.80
2008,07,13,04,11,12.80
2008,07,13,04,12,12.80
2008,07,13,04,13,12.80
2008,07,13,04,14,12.80
2008,07,13,04,15,12.80
2008,07,13,04,16,12.80
2008,07,13,04,17,12.70
2008,07,13,04,18,12.70
2008,07,13,04,19,12.70
2008,07,13,04,20,12.70
2008,07,13,04,21,12.60
2008,07,13,04,22,12.60
2008,07,13,04,23,12.60
2008,07,13,04,24,12.50
2008,07,13,04,25,12.50
2008,07,13,04,26,12.50
2008,07,13,04,27,12.50
2008,07,13,04,28,12.40
2008,07,13,04,29,12.40
2008,07,13,04,30,12.40
2008,07,13,04,31,12.40
2008,07,13,04,32,12.40
2008,07,13,04,33,12.40
2008,07,13,04,34,12.40
2008,07,13,04,35,12.50
2008,07,13,04,36,12.50
2008,07,13,04,37,12.50
2008,07,13,04,38,12.50
2008,07,13,04,39,12.50
2008,07,13,04,40,12.50
2008,07,13,04,41,12.50
2008,07,13,04,42,12.50
2008,07,13,04,43,12.40
2008,07,13,04,44,12.40
2008,07,13,04,45,12.40
2008,07,13,04,46,12.40
2008,07,13,04,47,12.40
2008,07,13,04,48,12.40
2008,07,13,04,49,12.40
2008,07,13,04,50,12.40
2008,07,13,04,51,12.40
2008,07,13,04,52,12.40
2008,07,13,04,53,12.40
2008,07,13,04,54,12.40
2008,07,13,04,55,12.40
2008,07,13,04,56,12.40
2008,07,13,04,57,12.40
2008,07,13,04,58,12.40
2008,07,13,04,59,12.40
2008,07,13,05,00,12.40
2008,07,13,05,01,12.40
2008,07,13,05,02,12.40
2008,07,13,05,03,12.40
2008,07,13,05,04,12.40
2008,07,13,05,05,12.40
2008,07,13,05,06,12.40
2008,07,13,05,07,12.40
2008,07,13,05,08,12.40
2008,07,13,05,09,12.40
2008,07,13,05,10,12.40
2008,07,13,05,11,12.40
2008,07,13,05,12,12.40
2008,07,13,05,13,12.40
2008,07,13,05,14,12.40
2008,07,13,05,15,12.40
2008,07,13,05,16,12.40
2008,07,13,05,17,12.40
2008,07,13,05,18,12.40
2008,07,13,05,19,12.40
2008,07,13,05,20,12.40
2008,07,13,05,21,12.40
2008,07,13,05,22,12.40
2008,07,13,05,23,12.30
2008,07,13,05,24,12.30
2008,07,13,05,25,12.30
2008,07,13,05,26,12.30
2008,07,13,05,27,12.30
2008,07,13,05,28,12.30
2008,07,13,05,29,12.30
2008,07,13,05,30,12.30
2008,07,13,05,31,12.30
2008,07,13,05,32,12.30
2008,07,13,05,33,12.30
2008,07,13,05,34,12.30
2008,07,13,05,35,12.30
2008,07,13,05,36,12.20
2008,07,13,05,37,12.20
2008,07,13,05,38,12.20
2008,07,13,05,39,12.20
2008,07,13,05,40,12.20
2008,07,13,05,41,12.20
2008,07,13,05,42,12.20
2008,07,13,05,43,12.20
2008,07,13,05,44,12.20
2008,07,13,05,45,12.20
2008,07,13,05,46,12.20
2008,07,13,05,47,12.20
2008,07,13,05,48,12.20
2008,07,13,05,49,12.10
2008,07,13,05,50,12.10
2008,07,13,05,51,12.10
2008,07,13,05,52,12.10
2008,07,13,05,53,12.10
2008,07,13,05,54,12.10
2008,07,13,05,55,12.10
2008,07,13,05,56,12.20
2008,07,13,05,57,12.20
2008,07,13,05,58,12.20
2008,07,13,05,59,12.20
2008,07,13,06,00,12.20
2008,07,13,06,01,12.20
2008,07,13,06,02,12.20
2008,07,13,06,03,12.20
2008,07,13,06,04,12.30
2008,07,13,06,05,12.30
2008,07,13,06,06,12.30
2008,07,13,06,07,12.30
2008,07,13,06,08,12.30
2008,07,13,06,09,12.30
2008,07,13,06,10,12.30
2008,07,13,06,11,12.40
2008,07,13,06,12,12.40
2008,07,13,06,13,12.40
2008,07,13,06,14,12.40
2008,07,13,06,15,12.40
2008,07,13,06,16,12.40
2008,07,13,06,17,12.50
2008,07,13,06,18,12.50
2008,07,13,06,19,12.50
2008,07,13,06,20,12.50
2008,07,13,06,21,12.50
2008,07,13,06,22,12.50
2008,07,13,06,23,12.50
2008,07,13,06,24,12.50
2008,07,13,06,25,12.50
2008,07,13,06,26,12.50
2008,07,13,06,27,12.50
2008,07,13,06,28,12.50
2008,07,13,06,29,12.60
2008,07,13,06,30,12.60
2008,07,13,06,31,12.60
2008,07,13,06,32,12.60
2008,07,13,06,33,12.70
2008,07,13,06,34,12.70
2008,07,13,06,35,12.70
2008,07,13,06,36,12.70
2008,07,13,06,37,12.80
2008,07,13,06,38,12.80
2008,07,13,06,39,12.80
2008,07,13,06,40,12.80
2008,07,13,06,41,12.80
2008,07,13,06,42,12.90
2008,07,13,06,43,12.90
2008,07,13,06,44,13.00
2008,07,13,06,45,13.00
2008,07,13,06,46,13.00
2008,07,13,06,47,13.10
2008,07,13,06,48,13.10
2008,07,13,06,49,13.20
2008,07,13,06,50,13.30
2008,07,13,06,51,13.30
2008,07,13,06,52,13.40
2008,07,13,06,53,13.40
2008,07,13,06,54,13.50
2008,07,13,06,55,13.50
2008,07,13,06,56,13.60
2008,07,13,06,57,13.60
2008,07,13,06,58,13.70
2008,07,13,06,59,13.70
2008,07,13,07,00,13.70
2008,07,13,07,01,13.80
2008,07,13,07,02,13.80
2008,07,13,07,03,13.90
2008,07,13,07,04,14.00
2008,07,13,07,05,14.00
2008,07,13,07,06,14.10
2008,07,13,07,07,14.30
2008,07,13,07,08,14.40
2008,07,13,07,09,14.50
2008,07,13,07,10,14.70
2008,07,13,07,11,14.80
2008,07,13,07,12,15.00
2008,07,13,07,13,15.10
2008,07,13,07,14,15.30
2008,07,13,07,15,15.50
2008,07,13,07,16,15.70
2008,07,13,07,17,15.90
2008,07,13,07,18,16.10
2008,07,13,07,19,16.20
2008,07,13,07,20,16.30
2008,07,13,07,21,16.40
2008,07,13,07,22,16.40
2008,07,13,07,23,16.50
2008,07,13,07,24,16.60
2008,07,13,07,25,16.70
2008,07,13,07,26,16.70
2008,07,13,07,27,16.70
2008,07,13,07,28,16.70
2008,07,13,07,29,16.80
2008,07,13,07,30,16.80
2008,07,13,07,31,16.80
2008,07,13,07,32,16.90
2008,07,13,07,33,17.00
2008,07,13,07,34,17.00
2008,07,13,07,35,17.00
2008,07,13,07,36,17.00
2008,07,13,07,37,17.10
2008,07,13,07,38,17.10
2008,07,13,07,39,17.10
2008,07,13,07,40,17.20
2008,07,13,07,41,17.20
2008,07,13,07,42,17.20
2008,07,13,07,43,17.30
2008,07,13,07,44,17.30
2008,07,13,07,45,17.30
2008,07,13,07,46,17.30
2008,07,13,07,47,17.30
2008,07,13,07,48,17.30
2008,07,13,07,49,17.40
2008,07,13,07,50,17.40
2008,07,13,07,51,17.40
2008,07,13,07,52,17.40
2008,07,13,07,53,17.50
2008,07,13,07,54,17.50
2008,07,13,07,55,17.50
2008,07,13,07,56,17.50
2008,07,13,07,57,17.50
2008,07,13,07,58,17.60
2008,07,13,07,59,17.60
2008,07,13,08,00,17.60
2008,07,13,08,01,17.60
2008,07,13,08,02,17.60
2008,07,13,08,03,17.60
2008,07,13,08,04,17.70
2008,07,13,08,05,17.70
2008,07,13,08,06,17.70
2008,07,13,08,07,17.70
2008,07,13,08,08,17.70
2008,07,13,08,09,17.80
2008,07,13,08,10,17.80
2008,07,13,08,11,17.80
2008,07,13,08,12,17.80
2008,07,13,08,13,17.80
2008,07,13,08,14,17.80
2008,07,13,08,15,17.80
2008,07,13,08,16,17.80
2008,07,13,08,17,17.80
2008,07,13,08,18,17.80
2008,07,13,08,19,17.80
2008,07,13,08,20,17.80
2008,07,13,08,21,17.90
2008,07,13,08,22,17.90
2008,07,13,08,23,17.90
2008,07,13,08,24,17.90
2008,07,13,08,25,17.90
2008,07,13,08,26,17.90
2008,07,13,08,27,17.90
2008,07,13,08,28,17.90
2008,07,13,08,29,17.90
2008,07,13,08,30,17.90
2008,07,13,08,31,17.80
2008,07,13,08,32,17.80
2008,07,13,08,33,17.80
2008,07,13,08,34,17.80
2008,07,13,08,35,17.90
2008,07,13,08,36,17.90
2008,07,13,08,37,17.80
2008,07,13,08,38,17.80
2008,07,13,08,39,17.80
2008,07,13,08,40,17.80
2008,07,13,08,41,17.90
2008,07,13,08,42,17.90
2008,07,13,08,43,17.90
2008,07,13,08,44,17.90
2008,07,13,08,45,17.90
2008,07,13,08,46,17.90
2008,07,13,08,47,17.90
2008,07,13,08,48,17.90
2008,07,13,08,49,17.90
2008,07,13,08,50,17.90
2008,07,13,08,51,17.90
2008,07,13,08,52,17.90
2008,07,13,08,53,18.00
2008,07,13,08,54,18.10
2008,07,13,08,55,18.10
2008,07,13,08,56,18.10
2008,07,13,08,57,18.10
2008,07,13,08,58,18.10
2008,07,13,08,59,18.00
2008,07,13,09,00,17.90
2008,07,13,09,01,17.90
2008,07,13,09,02,17.90
2008,07,13,09,03,17.90
2008,07,13,09,04,17.90
2008,07,13,09,05,17.90
2008,07,13,09,06,17.90
2008,07,13,09,07,17.90
2008,07,13,09,08,18.00
2008,07,13,09,09,18.00
2008,07,13,09,10,18.00
2008,07,13,09,11,18.00
2008,07,13,09,12,18.10
2008,07,13,09,13,18.10
2008,07,13,09,14,18.10
2008,07,13,09,15,18.10
2008,07,13,09,16,18.10
2008,07,13,09,17,18.10
2008,07,13,09,18,18.10
2008,07,13,09,19,18.10
2008,07,13,09,20,18.10
2008,07,13,09,21,18.10
2008,07,13,09,22,18.00
2008,07,13,09,23,18.00
2008,07,13,09,24,18.10
2008,07,13,09,25,18.10
2008,07,13,09,26,18.10
2008,07,13,09,27,18.20
2008,07,13,09,28,18.20
2008,07,13,09,29,18.10
2008,07,13,09,30,18.10
2008,07,13,09,31,18.10
2008,07,13,09,32,18.20
2008,07,13,09,33,18.20
2008,07,13,09,34,18.20
2008,07,13,09,35,18.20
2008,07,13,09,36,18.20
2008,07,13,09,37,18.30
2008,07,13,09,38,18.30
2008,07,13,09,39,18.30
2008,07,13,09,40,18.40
2008,07,13,09,41,18.40
2008,07,13,09,42,18.40
2008,07,13,09,43,18.40
2008,07,13,09,44,18.40
2008,07,13,09,45,18.40
2008,07,13,09,46,18.40
2008,07,13,09,47,18.40
2008,07,13,09,48,18.40
2008,07,13,09,49,18.40
2008,07,13,09,50,18.40
2008,07,13,09,51,18.30
2008,07,13,09,52,18.30
2008,07,13,09,53,18.30
2008,07,13,09,54,18.30
2008,07,13,09,55,18.40
2008,07,13,09,56,18.40
2008,07,13,09,57,18.40
2008,07,13,09,58,18.40
2008,07,13,09,59,18.50
2008,07,13,10,00,18.50
2008,07,13,10,01,18.50
2008,07,13,10,02,18.50
2008,07,13,10,03,18.60
2008,07,13,10,04,18.60
2008,07,13,10,05,18.60
2008,07,13,10,06,18.70
2008,07,13,10,07,18.70
2008,07,13,10,08,18.80
2008,07,13,10,09,18.80
2008,07,13,10,10,18.70
2008,07,13,10,11,18.60
2008,07,13,10,12,18.60
2008,07,13,10,13,18.60
2008,07,13,10,14,18.70
2008,07,13,10,15,18.80
2008,07,13,10,16,18.80
2008,07,13,10,17,18.90
2008,07,13,10,18,19.00
2008,07,13,10,19,19.10
2008,07,13,10,20,19.10
2008,07,13,10,21,19.10
2008,07,13,10,22,19.10
2008,07,13,10,23,19.10
2008,07,13,10,24,19.10
2008,07,13,10,25,19.10
2008,07,13,10,26,19.10
2008,07,13,10,27,19.10
2008,07,13,10,28,19.10
2008,07,13,10,29,19.10
2008,07,13,10,30,19.10
2008,07,13,10,31,19.10
2008,07,13,10,32,19.20
2008,07,13,10,33,19.30
2008,07,13,10,34,19.30
2008,07,13,10,35,19.40
2008,07,13,10,36,19.40
2008,07,13,10,37,19.50
2008,07,13,10,38,19.50
2008,07,13,10,39,19.50
2008,07,13,10,40,19.50
2008,07,13,10,41,19.50
2008,07,13,10,42,19.60
2008,07,13,10,43,19.60
2008,07,13,10,44,19.70
2008,07,13,10,45,19.60
2008,07,13,10,46,19.60
2008,07,13,10,47,19.50
2008,07,13,10,48,19.50
2008,07,13,10,49,19.60
2008,07,13,10,50,19.70
2008,07,13,10,51,19.80
2008,07,13,10,52,19.90
2008,07,13,10,53,19.90
2008,07,13,10,54,20.00
2008,07,13,10,55,19.90
2008,07,13,10,56,19.90
2008,07,13,10,57,19.90
2008,07,13,10,58,19.90
2008,07,13,10,59,19.90
2008,07,13,11,00,20.10
2008,07,13,11,01,20.10
2008,07,13,11,02,20.00
2008,07,13,11,03,20.00
2008,07,13,11,04,20.10
2008,07,13,11,05,20.00
2008,07,13,11,06,19.90
2008,07,13,11,07,19.90
2008,07,13,11,08,19.90
2008,07,13,11,09,19.90
2008,07,13,11,10,19.80
2008,07,13,11,11,19.90
2008,07,13,11,12,19.80
2008,07,13,11,13,19.80
2008,07,13,11,14,19.80
2008,07,13,11,15,19.70
2008,07,13,11,16,19.60
2008,07,13,11,17,19.60
2008,07,13,11,18,19.50
2008,07,13,11,19,19.60
2008,07,13,11,20,19.70
2008,07,13,11,21,19.70
2008,07,13,11,22,19.70
2008,07,13,11,23,19.70
2008,07,13,11,24,19.70
2008,07,13,11,25,19.70
2008,07,13,11,26,19.60
2008,07,13,11,27,19.60
2008,07,13,11,28,19.60
2008,07,13,11,29,19.60
2008,07,13,11,30,19.60
2008,07,13,11,31,19.50
2008,07,13,11,32,19.50
2008,07,13,11,33,19.50
2008,07,13,11,34,19.50
2008,07,13,11,35,19.60
2008,07,13,11,36,19.60
2008,07,13,11,37,19.60
2008,07,13,11,38,19.70
2008,07,13,11,39,19.70
2008,07,13,11,40,19.80
2008,07,13,11,41,19.90
2008,07,13,11,42,19.90
2008,07,13,11,43,20.00
2008,07,13,11,44,20.10
2008,07,13,11,45,20.10
2008,07,13,11,46,20.10
2008,07,13,11,47,20.10
2008,07,13,11,48,20.10
2008,07,13,11,49,20.10
2008,07,13,11,50,20.20
2008,07,13,11,51,20.10
2008,07,13,11,52,20.00
2008,07,13,11,53,19.90
2008,07,13,11,54,19.90
2008,07,13,11,55,19.90
2008,07,13,11,56,20.00
2008,07,13,11,57,20.10
2008,07,13,11,58,20.20
2008,07,13,11,59,20.20
2008,07,13,12,00,20.20
2008,07,13,12,01,20.30
2008,07,13,12,02,20.40
2008,07,13,12,03,20.50
2008,07,13,12,04,20.50
2008,07,13,12,05,20.60
2008,07,13,12,06,20.50
2008,07,13,12,07,20.50
2008,07,13,12,08,20.60
2008,07,13,12,09,20.60
2008,07,13,12,10,20.70
2008,07,13,12,11,20.80
2008,07,13,12,12,20.80
2008,07,13,12,13,20.80
2008,07,13,12,14,20.80
2008,07,13,12,15,20.70
2008,07,13,12,16,20.60
2008,07,13,12,17,20.50
2008,07,13,12,18,20.50
2008,07,13,12,19,20.50
2008,07,13,12,20,20.40
2008,07,13,12,21,20.30
2008,07,13,12,22,20.20
2008,07,13,12,23,20.20
2008,07,13,12,24,20.20
2008,07,13,12,25,20.20
2008,07,13,12,26,20.20
2008,07,13,12,27,20.20
2008,07,13,12,28,20.20
2008,07,13,12,29,20.20
2008,07,13,12,30,20.20
2008,07,13,12,31,20.20
2008,07,13,12,32,20.20
2008,07,13,12,33,20.20
2008,07,13,12,34,20.30
2008,07,13,12,35,20.20
2008,07,13,12,36,20.20
2008,07,13,12,37,20.20
2008,07,13,12,38,20.20
2008,07,13,12,39,20.20
2008,07,13,12,40,20.20
2008,07,13,12,41,20.20
2008,07,13,12,42,20.30
2008,07,13,12,43,20.50
2008,07,13,12,44,20.60
2008,07,13,12,45,20.70
2008,07,13,12,46,20.80
2008,07,13,12,47,20.80
2008,07,13,12,48,20.90
2008,07,13,12,49,21.00
2008,07,13,12,50,21.00
2008,07,13,12,51,21.10
2008,07,13,12,52,21.10
2008,07,13,12,53,21.20
2008,07,13,12,54,21.30
2008,07,13,12,55,21.30
2008,07,13,12,56,21.40
2008,07,13,12,57,21.40
2008,07,13,12,58,21.30
2008,07,13,12,59,21.30
2008,07,13,13,00,21.40
2008,07,13,13,01,21.40
2008,07,13,13,02,21.30
2008,07,13,13,03,21.30
2008,07,13,13,04,21.30
2008,07,13,13,05,21.20
2008,07,13,13,06,21.10
2008,07,13,13,07,21.10
2008,07,13,13,08,21.10
2008,07,13,13,09,21.20
2008,07,13,13,10,21.20
2008,07,13,13,11,21.30
2008,07,13,13,12,21.30
2008,07,13,13,13,21.30
2008,07,13,13,14,21.30
2008,07,13,13,15,21.40
2008,07,13,13,16,21.30
2008,07,13,13,17,21.30
2008,07,13,13,18,21.40
2008,07,13,13,19,21.40
2008,07,13,13,20,21.50
2008,07,13,13,21,21.60
2008,07,13,13,22,21.60
2008,07,13,13,23,21.60
2008,07,13,13,24,21.70
2008,07,13,13,25,21.60
2008,07,13,13,26,21.70
2008,07,13,13,27,21.70
2008,07,13,13,28,21.70
2008,07,13,13,29,21.70
2008,07,13,13,30,21.80
2008,07,13,13,31,21.80
2008,07,13,13,32,21.80
2008,07,13,13,33,21.80
2008,07,13,13,34,21.90
2008,07,13,13,35,22.00
2008,07,13,13,36,22.00
2008,07,13,13,37,22.00
2008,07,13,13,38,22.10
2008,07,13,13,39,22.20
2008,07,13,13,40,22.20
2008,07,13,13,41,22.30
2008,07,13,13,42,22.20
2008,07,13,13,43,22.10
2008,07,13,13,44,21.90
2008,07,13,13,45,21.80
2008,07,13,13,46,21.80
2008,07,13,13,47,21.90
2008,07,13,13,48,21.90
2008,07,13,13,49,22.00
2008,07,13,13,50,22.00
2008,07,13,13,51,22.10
2008,07,13,13,52,22.20
2008,07,13,13,53,22.30
2008,07,13,13,54,22.50
2008,07,13,13,55,22.50
2008,07,13,13,56,22.50
2008,07,13,13,57,22.40
2008,07,13,13,58,22.40
2008,07,13,13,59,22.40
2008,07,13,14,00,22.50
2008,07,13,14,01,22.70
2008,07,13,14,02,22.70
2008,07,13,14,03,22.90
2008,07,13,14,04,22.90
2008,07,13,14,05,23.10
2008,07,13,14,06,23.20
2008,07,13,14,07,23.30
2008,07,13,14,08,23.30
2008,07,13,14,09,23.30
2008,07,13,14,10,23.40
2008,07,13,14,11,23.40
2008,07,13,14,12,23.50
2008,07,13,14,13,23.50
2008,07,13,14,14,23.40
2008,07,13,14,15,23.40
2008,07,13,14,16,23.40
2008,07,13,14,17,23.30
2008,07,13,14,18,23.40
2008,07,13,14,19,23.40
2008,07,13,14,20,23.40
2008,07,13,14,21,23.30
2008,07,13,14,22,23.30
2008,07,13,14,23,23.20
2008,07,13,14,24,23.10
2008,07,13,14,25,23.10
2008,07,13,14,26,23.20
2008,07,13,14,27,23.20
2008,07,13,14,28,23.20
2008,07,13,14,29,23.30
2008,07,13,14,30,23.50
2008,07,13,14,31,23.60
2008,07,13,14,32,23.70
2008,07,13,14,33,23.70
2008,07,13,14,34,23.70
2008,07,13,14,35,23.60
2008,07,13,14,36,23.40
2008,07,13,14,37,23.40
2008,07,13,14,38,23.30
2008,07,13,14,39,23.30
2008,07,13,14,40,23.20
2008,07,13,14,41,23.10
2008,07,13,14,42,22.90
2008,07,13,14,43,22.90
2008,07,13,14,44,22.90
2008,07,13,14,45,23.00
2008,07,13,14,46,23.10
2008,07,13,14,47,23.20
2008,07,13,14,48,23.30
2008,07,13,14,49,23.50
2008,07,13,14,50,23.60
2008,07,13,14,51,23.70
2008,07,13,14,52,23.70
2008,07,13,14,53,23.70
2008,07,13,14,54,23.70
2008,07,13,14,55,23.60
2008,07,13,14,56,23.60
2008,07,13,14,57,23.60
2008,07,13,14,58,23.50
2008,07,13,14,59,23.40
2008,07,13,15,00,23.40
2008,07,13,15,01,23.30
2008,07,13,15,02,23.30
2008,07,13,15,03,23.30
2008,07,13,15,04,23.30
2008,07,13,15,05,23.30
2008,07,13,15,06,23.30
2008,07,13,15,07,23.30
2008,07,13,15,08,23.30
2008,07,13,15,09,23.30
2008,07,13,15,10,23.40
2008,07,13,15,11,23.50
2008,07,13,15,12,23.60
2008,07,13,15,13,23.70
2008,07,13,15,14,23.70
2008,07,13,15,15,23.80
2008,07,13,15,16,23.80
2008,07,13,15,17,23.90
2008,07,13,15,18,23.90
2008,07,13,15,19,23.90
2008,07,13,15,20,23.80
2008,07,13,15,21,23.80
2008,07,13,15,22,23.80
2008,07,13,15,23,23.90
2008,07,13,15,24,23.80
2008,07,13,15,25,23.80
2008,07,13,15,26,23.70
2008,07,13,15,27,23.70
2008,07,13,15,28,23.70
2008,07,13,15,29,23.70
2008,07,13,15,30,23.70
2008,07,13,15,31,23.70
2008,07,13,15,32,23.70
2008,07,13,15,33,23.70
2008,07,13,15,34,23.70
2008,07,13,15,35,23.80
2008,07,13,15,36,24.00
2008,07,13,15,37,24.10
2008,07,13,15,38,24.10
2008,07,13,15,39,24.10
2008,07,13,15,40,24.20
2008,07,13,15,41,24.20
2008,07,13,15,42,24.20
2008,07,13,15,43,24.20
2008,07,13,15,44,24.10
2008,07,13,15,45,24.10
2008,07,13,15,46,24.10
2008,07,13,15,47,24.10
2008,07,13,15,48,24.00
2008,07,13,15,49,23.90
2008,07,13,15,50,23.70
2008,07,13,15,51,23.70
2008,07,13,15,52,23.60
2008,07,13,15,53,23.50
2008,07,13,15,54,23.40
2008,07,13,15,55,23.40
2008,07,13,15,56,23.40
2008,07,13,15,57,23.40
2008,07,13,15,58,23.30
2008,07,13,15,59,23.30
2008,07,13,16,00,23.30
2008,07,13,16,01,23.30
2008,07,13,16,02,23.30
2008,07,13,16,03,23.30
2008,07,13,16,04,23.30
2008,07,13,16,05,23.40
2008,07,13,16,06,23.50
2008,07,13,16,07,23.60
2008,07,13,16,08,23.70
2008,07,13,16,09,23.80
2008,07,13,16,10,23.90
2008,07,13,16,11,24.00
2008,07,13,16,12,24.10
2008,07,13,16,13,24.10
2008,07,13,16,14,24.20
2008,07,13,16,15,24.20
2008,07,13,16,16,24.20
2008,07,13,16,17,24.20
2008,07,13,16,18,24.20
2008,07,13,16,19,24.20
2008,07,13,16,20,24.20
2008,07,13,16,21,24.30
2008,07,13,16,22,24.30
2008,07,13,16,23,24.40
2008,07,13,16,24,24.40
2008,07,13,16,25,24.40
2008,07,13,16,26,24.40
2008,07,13,16,27,24.50
2008,07,13,16,28,24.50
2008,07,13,16,29,24.60
2008,07,13,16,30,24.70
2008,07,13,16,31,24.70
2008,07,13,16,32,24.70
2008,07,13,16,33,24.60
2008,07,13,16,34,24.60
2008,07,13,16,35,24.50
2008,07,13,16,36,24.40
2008,07,13,16,37,24.30
2008,07,13,16,38,24.30
2008,07,13,16,39,24.20
2008,07,13,16,40,24.20
2008,07,13,16,41,24.30
2008,07,13,16,42,24.40
2008,07,13,16,43,24.50
2008,07,13,16,44,24.50
2008,07,13,16,45,24.60
2008,07,13,16,46,24.80
2008,07,13,16,47,24.90
2008,07,13,16,48,24.90
2008,07,13,16,49,25.00
2008,07,13,16,50,25.10
2008,07,13,16,51,25.10
2008,07,13,16,52,25.20
2008,07,13,16,53,25.30
2008,07,13,16,54,25.40
2008,07,13,16,55,25.50
2008,07,13,16,56,25.50
2008,07,13,16,57,25.50
2008,07,13,16,58,25.40
2008,07,13,16,59,25.30
2008,07,13,17,00,25.20
2008,07,13,17,01,25.10
2008,07,13,17,02,24.90
2008,07,13,17,03,24.80
2008,07,13,17,04,24.70
2008,07,13,17,05,24.70
2008,07,13,17,06,24.70
2008,07,13,17,07,24.70
2008,07,13,17,08,24.70
2008,07,13,17,09,24.70
2008,07,13,17,10,24.70
2008,07,13,17,11,24.60
2008,07,13,17,12,24.50
2008,07,13,17,13,24.50
2008,07,13,17,14,24.40
2008,07,13,17,15,24.30
2008,07,13,17,16,24.30
2008,07,13,17,17,24.20
2008,07,13,17,18,24.10
2008,07,13,17,19,24.00
2008,07,13,17,20,23.90
2008,07,13,17,21,23.80
2008,07,13,17,22,23.80
2008,07,13,17,23,23.80
2008,07,13,17,24,23.80
2008,07,13,17,25,23.80
2008,07,13,17,26,23.80
2008,07,13,17,27,23.80
2008,07,13,17,28,23.90
2008,07,13,17,29,23.90
2008,07,13,17,30,24.00
2008,07,13,17,31,24.10
2008,07,13,17,32,24.10
2008,07,13,17,33,24.20
2008,07,13,17,34,24.20
2008,07,13,17,35,24.30
2008,07,13,17,36,24.30
2008,07,13,17,37,24.30
2008,07,13,17,38,24.40
2008,07,13,17,39,24.40
2008,07,13,17,40,24.40
2008,07,13,17,41,24.50
2008,07,13,17,42,24.50
2008,07,13,17,43,24.50
2008,07,13,17,44,24.50
2008,07,13,17,45,24.50
2008,07,13,17,46,24.60
2008,07,13,17,47,24.70
2008,07,13,17,48,24.80
2008,07,13,17,49,24.90
2008,07,13,17,50,25.00
2008,07,13,17,51,25.20
2008,07,13,17,52,25.30
2008,07,13,17,53,25.40
2008,07,13,17,54,25.50
2008,07,13,17,55,25.50
2008,07,13,17,56,25.50
2008,07,13,17,57,25.50
2008,07,13,17,58,25.60
2008,07,13,17,59,25.70
2008,07,13,18,00,25.80
2008,07,13,18,01,25.80
2008,07,13,18,02,25.80
2008,07,13,18,03,25.80
2008,07,13,18,04,25.90
2008,07,13,18,05,25.80
2008,07,13,18,06,25.80
2008,07,13,18,07,25.80